Regional Weather Roundup
Issued by NWS Sioux Falls, SD

Home | Current Version | Previous Version | Graphics & Text | Print | Product List | Glossary On
Versions: 1 2 3 4 5 6 7 8 9 10 11 12 13 14 15 16 17 18 19 20 21 22 23 24 25 26 27 28 29 30 31 32 33 34 35 36 37 38 39 40 41 42 43 44 45 46 47 48 49 50
000
ASUS43 KFSD 231410
RWRFSD

WEATHER ROUNDUP FOR SE SOUTH DAKOTA/SW MINNESOTA/NW IOWA
NATIONAL WEATHER SERVICE SIOUX FALLS SD
900 AM CDT TUE SEP 23 2014

NOTE: "FAIR" INDICATES FEW OR NO CLOUDS BELOW 12,000 FEET WITH NO
SIGNIFICANT WEATHER AND OR OBSTRUCTIONS TO VISIBILITY.


SDZ038>040-050-052>070-231500-
SOUTHEAST SOUTH DAKOTA

CITY           SKY/WX    TMP DP  RH WIND       PRES   REMARKS
CHAMBERLAIN    CLOUDY    58  55  87 S18G24    29.96F
HURON          LGT RAIN  58  56  93 SE17G25   30.03S
MADISON        LGT RAIN  55  55 100 S13       30.13R
MITCHELL       RAIN      58  57  97 SE15G24   30.06S FOG
SIOUX FALLS    LGT RAIN  57  54  89 S12       30.15R
WINNER         CLOUDY    60  54  80 S18G28    29.95F
YANKTON        CLOUDY    55  54  94 SE9       30.11S
$$

MNZ071-072-080-081-089-090-097-098-231500-
SOUTHWEST MINNESOTA

CITY           SKY/WX    TMP DP  RH WIND       PRES   REMARKS
FAIRMONT       PTSUNNY   55  48  76 S8        30.22R
JACKSON        PTSUNNY   55  50  82 S8        30.21R
LUVERNE        LGT RAIN  55  52  88 S6        30.17R
MARSHALL       CLOUDY    57  48  72 S9        30.14R
MONTEVIDEO     PTSUNNY   57  52  82 S8        30.14S
PIPESTONE      LGT RAIN  55  50  82 S9        30.15R
REDWOOD FALLS  PTSUNNY   57  51  80 S8        30.17R
TRACY          PTSUNNY   58  50  77 S13       30.16R
WINDOM         PTSUNNY   55  52  88 NE6       30.19R
WORTHINGTON    CLOUDY    55  50  82 S12       30.19S
$$

IAZ001>003-012>014-020>022-031-032-NEZ013-014-SDZ071-231500-
NORTHWEST IOWA

CITY           SKY/WX    TMP DP  RH WIND       PRES   REMARKS
CHEROKEE       LGT RAIN  56  55  95 S7        30.19S
DENISON        CLOUDY    59  54  82 S7G14     30.19S
ESTHERVILLE    CLOUDY    53  51  93 S10       30.21R
LE MARS        CLOUDY    57  55  94 SE9G15    30.17S
ORANGE CITY    LGT RAIN  57  54  88 S5        30.18S
SHELDON        CLOUDY    55  54  94 SE6       30.17S
SIOUX CITY     LGT RAIN  58  56  93 SE7       30.16S
SPENCER        CLOUDY    56  52  86 S7        30.20R
$$

ABBREVIATIONS USED IN REMARKS
   TC - TEMPERATURE IN CELSIUS
  WCI - WIND CHILL INDEX
   HX - HEAT INDEX
  VSB - VISIBILITY




USA.gov is the U.S. government's official web portal to all federal, state and local government web resources and services.